Regional Weather Roundup
Issued by NWS

Home | Current Version | Previous Version | Graphics & Text | Print | Product List | Glossary On
Versions: 1 2 3 4 5 6 7 8 9 10 11 12 13 14 15 16 17 18 19 20 21 22 23 24 25 26 27 28 29 30 31 32 33 34 35 36 37 38 39 40 41 42 43 44 45 46 47 48 49 50
000
ASUS43 KMPX 250510
RWRMN
WEATHER ROUNDUP FOR MINNESOTA
NATIONAL WEATHER SERVICE TWIN CITIES/CHANHASSEN MN
1200 AM CDT MON SEP 25 2017


NOTE: "FAIR" INDICATES FEW OR NO CLOUDS BELOW 12,000 FEET WITH NO
SIGNIFICANT WEATHER AND/OR OBSTRUCTIONS TO VISIBILITY. N/A MEANS
CURRENT SKY AND/OR WEATHER CONDITIONS ARE NOT AVAILABLE.

MNZ060>063-068>070-250600-
   Twin Cities Metro

CITY           SKY/WX    TMP DP  RH WIND       PRES   REMARKS
TWIN CITIES    CLOUDY    72  67  84 W7        29.93R
ST PAUL        PTCLDY    71  67  87 VRB5      29.92S
CRYSTAL        PTCLDY    69  64  84 W6        29.92S
BLAINE         PTCLDY    70  70 100 W5        29.92S
LAKEVILLE      MOCLDY    66  66 100 W6        29.94R
EDEN PRAIRIE   CLOUDY    70  66  87 W5        29.92S
SOUTH ST PAUL  MOCLDY    72  65  80 W6        29.92S
LAKE ELMO      FAIR      70  64  83 NW3       29.92F
$$
MNZ001>005-007-008-013>017-022>024-027-028-250600-
   Northwest Minnesota

CITY           SKY/WX    TMP DP  RH WIND       PRES   REMARKS
BEMIDJI        CLOUDY    50  49  97 NW7       29.96R
HALLOCK        CLOUDY    50  48  93 NW13      30.00R
ROSEAU         CLOUDY    50  45  81 W8        29.96R
WARROAD        CLOUDY    48  45  87 W8        29.95R FOG
THIEF RVR FALL CLOUDY    49  48  97 NW14      29.99S
CROOKSTON      CLOUDY    50  50 100 MISG      30.01S
FOSSTON        DRIZZLE   48  46  93 W7        29.99R
DETROIT LAKES  CLOUDY    50  48  93 NW15      30.00S FOG
MOORHEAD       CLOUDY    50  48  93 NW8       30.02S
PARK RAPIDS    CLOUDY    52  49  89 NW10      29.97R
MAHNOMEN       CLOUDY    49  48  97 NW7       29.99S
$$
MNZ006-009>011-018-025>026-250600-
   North Central Minnesota

CITY           SKY/WX    TMP DP  RH WIND       PRES   REMARKS
BAUDETTE       CLOUDY    51  51 100 W9        29.93R
FLAG ISLAND    CLOUDY    52  48  87 NW15      29.91R
INTL FALLS     MOCLDY    56  53  90 W9        29.89R
WASKISH        CLOUDY    52  52 100 W12       29.94R
BIG FORK       PTCLDY    55  55 100 W3        29.91R
LONGVILLE      MOCLDY    55  54  94 W6        29.94R
GRAND RAPIDS   CLOUDY    59  57  93 NW9       29.94R
CRANE LAKE     CLOUDY    61  61 100 CALM      29.89R
ORR            CLOUDY    61  55  82 W5        29.87R
COOK           CLOUDY    61  61 100 NW6       29.89R
WALKER         CLOUDY    52  50  93 NW8       29.95S
$$
MNZ012-019>021-037-250600-
   Northeast Minnesota

CITY           SKY/WX    TMP DP  RH WIND       PRES   REMARKS
DULUTH         CLEAR     65  65 100 W7        29.88S
ELY            CLOUDY    64  64 100 SW5       29.87S
HIBBING        CLOUDY    63  62  97 W9        29.89R
EVELETH        CLOUDY    65  64  97 S3        29.89S
DULUTH HARBOR  CLEAR     66  64  94 SW3       29.88R
TWO HARBORS    HAZE      66  63  88 CALM      29.86S VSB 1/2
SILVER BAY     CLOUDY    66  66 100 CALM      29.85F FOG
GRAND MARAIS     N/A     63  63 100 W5        29.84S
G MARAIS ARPRT LGT RAIN  64  61  88 SW7       29.89F
$$
MNZ029>031-032-039>041-046>048-054>057-064-250600-
   West Central Minnesota

CITY           SKY/WX    TMP DP  RH WIND       PRES   REMARKS
FERGUS FALLS   CLOUDY    52  52 100 N5        30.02R
WHEATON        CLOUDY    52  48  87 NW12      30.04R
MORRIS         CLOUDY    54  52  94 NW13      30.00S
ALEXANDRIA     CLOUDY    53  51  93 NW12      30.00R
ELBOW LAKE     MOCLDY    51  50  97 NW13      30.01R
WADENA         CLOUDY    52  52 100 NW9       29.98R
GLENWOOD       CLOUDY    54  52  94 NW12      30.00R
APPLETON       MOCLDY    55  50  82 N9        30.00S
BENSON         CLOUDY    55  52  88 N10       30.01S
ORTONVILLE     CLOUDY    52  50  93 N8        30.02S
MADISON        CLOUDY    57  57 100 N12       30.01S
WILLMAR        CLOUDY    57  55  94 NW14      29.99R
$$
MNZ033>034-036-042>043-049>051-058-059-250600-
   Central Minnesota

CITY           SKY/WX    TMP DP  RH WIND       PRES   REMARKS
ST CLOUD       CLOUDY    60  60 100 W12       29.95R
SAUK CENTRE    CLOUDY    55  52  90 NW10      29.98R
PAYNESVILLE    LGT RAIN  56  55  94 W9        29.97S
AITKIN         CLOUDY    61  57  88 W3        29.91S
PINE RIVER     CLOUDY    54  48  82 W7        29.98R
BRAINERD       CLOUDY    58  55  90 W13       29.95R
STAPLES        CLOUDY    52  52 100 W7        29.98R
LONG PRAIRIE   CLOUDY    54  52  94 W10       29.98R
LITTLE FALLS   CLOUDY    57  52  82 W14       29.95S
LITCHFIELD     LGT RAIN  59  59 100 NW9       29.97R
BUFFALO        CLOUDY    65  61  88 W5        29.95S
MAPLE LAKE     CLOUDY    64  62  94 W8        29.95S
HUTCHINSON     LGT RAIN  61  59  95 W7        29.98R
$$
MNZ037-044-045-052-053-250600-
   East Central Minnesota

CITY           SKY/WX    TMP DP  RH WIND       PRES   REMARKS
PRINCETON      LGT RAIN  66  64  94 SW3       29.93R
MORA           RAIN      64  64 100 W6        29.94R
CAMBRIDGE      CLOUDY    70  66  88 SW3       29.93R
RUSH CITY      CLOUDY    67  65  94 CALM      29.93R
MOOSE LAKE     CLOUDY    64  63  94 CALM      29.88R
HINCKLEY       FAIR      66  66 100 SW5       29.91R
CLOQUET        PTCLDY    66  63  88 W7        29.90R
MCGREGOR       CLOUDY    63  61  94 W5        29.91S
$$
MNZ071>073-080-081-089-090-097-098-250600-
   Southwest Minnesota

CITY           SKY/WX    TMP DP  RH WIND       PRES   REMARKS
MONTEVIDEO     CLOUDY    55  54  94 N15       30.00S
GRANITE FALLS  CLOUDY    58  54  86 NW7       30.01S
CANBY          CLOUDY    54  51  90 NW8       30.02F
MARSHALL       CLOUDY    56  53  90 N10       29.99F
REDWOOD FALLS  LGT RAIN  58  55  90 N8        29.97R
OLIVIA         DRIZZLE   55  54  94 NW9       29.99R
PIPESTONE      CLOUDY    57  54  88 N5        29.99S
WINDOM         RAIN      59  57  94 NW12      29.99R
WORTHINGTON    LGT RAIN  57  57 100 N10       29.97F
JACKSON        HVY RAIN  61  59  94 NW6G17    29.99R
TRACY          CLOUDY    57  56  97 N8        30.00S
SLAYTON        LGT RAIN  57  52  81 N8        30.00R
$$
MNZ065>067-074>077-082>085-091>093-250600-
   South Central Minnesota

CITY           SKY/WX    TMP DP  RH WIND       PRES   REMARKS
MANKATO        CLOUDY    64  61  90 NW9       29.96S
NEW ULM        CLOUDY    63  59  88 NW10      29.97R
ST JAMES       CLOUDY    63  59  88 NW3       29.99R
FAIRMONT       MOCLDY    64  62  93 N9        29.96S
FARIBAULT      CLOUDY    70  66  88 CALM      29.96R
OWATONNA       LGT RAIN  70  66  88 CALM      29.95S
WASECA         CLOUDY    64  63  94 W3        29.97S
ALBERT LEA     MOCLDY    72  68  88 CALM      29.95S
$$
MNZ078>079-086>088-094>096-250600-
   Southeast Minnesota

CITY           SKY/WX    TMP DP  RH WIND       PRES   REMARKS
ROCHESTER      CLEAR     67  63  87 S5        29.96S
RED WING       CLOUDY    73  63  68 CALM      29.91R
STANTON        CLOUDY    69  67  92 SW6       29.94R
DODGE CENTER   CLOUDY    68  63  83 CALM      29.96R
WINONA         CLEAR     77  61  57 CALM      29.92S
AUSTIN         PTCLDY    70  63  78 S3        29.96R
PRESTON        CLEAR     69  61  76 W9        29.98R
$$
ABBREVIATIONS USED IN REMARKS
   TC - TEMPERATURES IN CELSIUS
  WCI - WIND CHILL INDEX
   HX - HEAT INDEX
  VSB - VISIBILITY
$$




USA.gov is the U.S. government's official web portal to all federal, state and local government web resources and services.